(186) Celuta
ephemeris date magn radius delta ra dec elong phase
Today2 Jul 202514.22.353 AU3.240 AU04h58m+30°18'24.5°10.3°
Opposition15 Jan 202612.92.629 AU1.685 AU08h07m+41°12'159.5°7.5°
(186) Celuta - 2025-07-02
astro.vanbuitenen.nl


 
-1 year
-1 month
-1 day
Now
+1 day
+1 month
+1 year

The interactive orbit chart above shows the body's path through the solar system and its position at the given date. Green and blue lines are shown perpendicular to the ecliptic plane: Green if the path is above the ecliptic plane, blue if it is below. (Left-click and drag to rotate the view; Right-click and drag to move the view; Use scroll wheel to zoom in our out.)

The orbital elements of Celuta are:

            e (Eccentricity)                : 0.1493228
            a (Semimajor axis)              : 2.3620825
            i (Inclination)                 : 13.18461
            Ω (Longitude of ascending node) : 14.70859
            ω (Argument of perihelion)      : 315.64727
            M (Mean anomaly)                : 64.15711
            Epoch                           : 2025 May 05

            L (Longitude of perihelion)     : -28.87937
            B (Latitude of perihelion)      : -9.17505
            P (Orbital period in years)     : 3.63            
        

The light curve chart below shows the estimated development of the minor planet's magnitude.


The all-sky chart below shows the path of the minor planet over the same period as the light curve. The current position is marked yellow.





The following chart shows the path of the minor planet in the next few days. The field of view is optimized for (~10x50) binoculars and finderscopes. A more printer-friendly version of the same chart can be found below.




Ephemerides:
Date       Time       RA (2000)    DEC (2000)    delta   radius  elong  phase   PA    magn
2025-07-02 00:00 UT   04 58 42.9   +30 18 15     3.240    2.353   24.5   10.3   281   14.2 
2025-07-02 02:40 UT   04 58 57.0   +30 18 50     3.239    2.353   24.5   10.3   281   14.2 
2025-07-03 00:00 UT   05 00 49.5   +30 23 32     3.237    2.354   24.9   10.5   281   14.2 
2025-07-04 00:00 UT   05 02 56.0   +30 28 44     3.233    2.356   25.4   10.7   281   14.2 
2025-07-05 00:00 UT   05 05 02.4   +30 33 51     3.230    2.358   25.9   10.9   281   14.2 
2025-07-06 00:00 UT   05 07 08.7   +30 38 51     3.226    2.359   26.4   11.0   281   14.2 
2025-07-07 00:00 UT   05 09 15.0   +30 43 46     3.223    2.361   26.9   11.2   281   14.2 
2025-07-08 00:00 UT   05 11 21.1   +30 48 36     3.219    2.363   27.3   11.4   281   14.2 
2025-07-09 00:00 UT   05 13 27.2   +30 53 20     3.215    2.364   27.8   11.6   281   14.2 
2025-07-10 00:00 UT   05 15 33.2   +30 57 59     3.211    2.366   28.3   11.8   281   14.2 
2025-07-11 00:00 UT   05 17 39.1   +31 02 32     3.207    2.368   28.8   11.9   280   14.2 
2025-07-12 00:00 UT   05 19 44.9   +31 06 59     3.203    2.369   29.3   12.1   280   14.2 
2025-07-13 00:00 UT   05 21 50.6   +31 11 21     3.199    2.371   29.8   12.3   280   14.2 
2025-07-14 00:00 UT   05 23 56.1   +31 15 38     3.195    2.373   30.2   12.5   280   14.2 
2025-07-15 00:00 UT   05 26 01.6   +31 19 49     3.190    2.374   30.7   12.6   280   14.2 
2025-07-16 00:00 UT   05 28 06.9   +31 23 55     3.186    2.376   31.2   12.8   280   14.2 
2025-07-17 00:00 UT   05 30 12.1   +31 27 56     3.181    2.378   31.7   13.0   280   14.2 
2025-07-18 00:00 UT   05 32 17.1   +31 31 51     3.177    2.379   32.2   13.2   281   14.2 
2025-07-19 00:00 UT   05 34 22.0   +31 35 42     3.172    2.381   32.7   13.3   281   14.3 
2025-07-20 00:00 UT   05 36 26.8   +31 39 27     3.167    2.383   33.2   13.5   281   14.3 


    Terminology:
            
    delta:  distance between minor planet and earth in AU
    radius: distance between minor planet and sun in AU
    magn:   magnitude (brightness) estimate    
    ra:     right ascension in hours (24h = 360deg)
    dec:    declination in degrees
    elong:  elongation in degrees (angle sun-earth-minor planet)    
    phase:  phase angle in degrees (angle sun-minor planet-earth)        
    AU:     Astronomical Unit (mean distance between earth and sun: 149597870.7 km
    

Orbital elements provided by the MPC (Minor Planet Center).
Calculations by a modified version of AAPlus, a C# implementation of the AA+ project by PJ Naughter from the algorithms presented in the book "Astronomical Algorithms" by Jean Meeus.
NGC2000 dso catalog and star labels from VizieR as provided by the Strasbourg astronomical Data Center.
Tycho2 catalog from the ESO archive.